{"data":{"norad_id":67390,"intl_designator":"2026-004AD","name":"CONNECTA IOT-16","alt_names":[],"object_type":"PAYLOAD","status":"ACTIVE","operator":null,"country":"TURK","launch_date":"2026-01-11","launch_site_code":"AFWTR","launch_vehicle":null,"mission":null,"orbit_class":"UNKNOWN","rcs_meters":null,"size_class":null,"mass_kg":null,"dimensions":null,"purposes":[],"wikipedia_slug":null,"has_3d_model":false,"image_url":null,"decayed_at":null,"tle_current":{"epoch":"2026-09-20T11:43:00.417792Z","epoch_age_seconds":103260,"freshness":"FRESH","line1":"1 67390U 26004AD  26263.48819928  .00005309  00000+0  25991-3 0  9990","line2":"2 67390  97.4655 261.1387 0004513  39.3431 320.8130 15.18593201 38202","mean_motion":15.18593201,"eccentricity":0.0004513,"inclination_deg":97.4655,"raan_deg":261.1387,"arg_perigee_deg":39.3431,"mean_anomaly_deg":320.813,"bstar":0.00025991,"rev_number":3820,"period_min":94.824604709922,"perigee_km":506.98276689126,"apogee_km":513.2000818671,"semimajor_km":6888.2284243792,"source":"CELESTRAK","updated_at":"2026-09-21T09:00:16.598740Z"}}}